Montpellier, France

11:47 AM CET on February 22, 2017 (GMT +0100)
Montpellier / Mediterranee

Weather History for LFMT - April, 2014

Change the Weather History Date:

Tuesday, April 8, 2014

  Actual Average Record
Temperature  
Mean Temperature 64 °F -  
Max Temperature 75 °F 65 °F 86 °F (2011)
Min Temperature 54 °F 49 °F 39 °F (2003)
Growing Degree Days 14 (Base 50)    
Moisture  
Dew Point 49 °F    
Average Humidity 63    
Maximum Humidity 88    
Minimum Humidity 15    
Precipitation  
Precipitation 0.04 in - - ()
Sea Level Pressure  
Sea Level Pressure 30.15 in    
Wind  
Wind Speed 6 mph ()    
Max Wind Speed 23 mph    
Max Gust Speed -    
Visibility 7.5 miles    
Events Rain    
Averages and records for this station are not official NWS values.
T = Trace of Precipitation, MM = Missing Value Source: Averaged Metar Reports

Daily Weather History Graph

Daily Weather History Graph

Search for Another Location

Airport or City:

Trip Planner

Search our weather history database for the weather conditions in past years. The results will help you decide how hot, cold, wet, or windy it might be!

Date:

Astronomy

Apr. 08, 2014 Rise Set
Actual Time 7:13 AM CEST 8:18 PM CEST
Civil Twilight 6:44 AM CEST 8:48 PM CEST
Nautical Twilight 6:09 AM CEST 9:23 PM CEST
Astronomical Twilight 5:32 AM CEST 10:00 PM CEST
Moon 1:47 PM CEST (4/8) 3:27 AM CEST (4/8)
Length of Visible Light 14h 03m
Length of Day
13h 05m
First Quarter, 60% of the Moon is Illuminated
Apr 8
First Quarter
Apr 15
Full
Apr 22
Last Quarter
Apr 29
New
May 7
First Quarter

Hourly Weather History & Observations

Time (CEST) Temp. Dew Point Humidity Pressure Visibility Wind Dir Wind Speed Gust Speed Precip Events Conditions
12:00 AM 57 °F 53 °F 80% 30.14 in 9 mi ESE 5.8 mph - -   Overcast
12:00 AM 57.2 °F 51.8 °F 82% 30.12 in 6.2 mi ESE 5.8 mph - N/A   Overcast
12:30 AM 57.2 °F 51.8 °F 82% 30.12 in 6.2 mi ESE 3.5 mph - N/A   Overcast
1:00 AM 58 °F 53 °F 76% 30.14 in 9 mi ESE 5.8 mph - -   Overcast
1:30 AM 57.2 °F 51.8 °F 82% 30.12 in 6.2 mi ESE 5.8 mph - N/A   Overcast
2:00 AM 58 °F 52 °F 76% 30.15 in 12 mi NW 2.3 mph - -   Clear
2:00 AM 57.2 °F 51.8 °F 82% 30.12 in 6.2 mi Variable 2.3 mph - N/A   Overcast
2:30 AM 57.2 °F 51.8 °F 82% 30.12 in 6.2 mi Variable 2.3 mph - N/A   Overcast
3:00 AM 58 °F 52 °F 75% 30.14 in 11 mi NNE 4.6 mph - -   Clear
3:00 AM 57.2 °F 51.8 °F 82% 30.12 in 6.2 mi NNE 4.6 mph - N/A   Overcast
3:30 AM 57.2 °F 51.8 °F 82% 30.12 in 6.2 mi Variable 3.5 mph - N/A   Overcast
4:00 AM 58 °F 52 °F 75% 30.12 in 10 mi NNE 3.5 mph - -   Clear
4:00 AM 57.2 °F 51.8 °F 82% 30.09 in 6.2 mi NNE 3.5 mph - N/A   Overcast
4:30 AM 57.2 °F 51.8 °F 82% 30.09 in 6.2 mi North 3.5 mph - N/A   Overcast
5:00 AM 57 °F 52 °F 76% 30.12 in 9 mi NNW 2.3 mph - -   Clear
5:00 AM 57.2 °F 51.8 °F 82% 30.09 in 6.2 mi Variable 2.3 mph - N/A   Overcast
5:30 AM 57.2 °F 51.8 °F 82% 30.12 in 6.2 mi NW 3.5 mph - N/A   Overcast
6:00 AM 56 °F 50 °F 75% 30.13 in 9 mi North 2.3 mph - -   Overcast
6:00 AM 57.2 °F 50.0 °F 77% 30.12 in 6.2 mi Variable 2.3 mph - N/A   Mostly Cloudy
6:30 AM 57.2 °F 51.8 °F 82% 30.12 in 6.2 mi NW 5.8 mph - N/A   Overcast
7:00 AM 55 °F 50 °F 79% 30.13 in 9 mi North 4.6 mph - -   Overcast
7:00 AM 55.4 °F 50.0 °F 82% 30.12 in 6.2 mi North 4.6 mph - N/A   Mostly Cloudy
7:30 AM 55.4 °F 50.0 °F 82% 30.12 in 6.2 mi NNE 3.5 mph - N/A   Mostly Cloudy
8:00 AM 55 °F 51 °F 81% 30.14 in 9 mi NW 2.3 mph - -   Scattered Clouds
8:00 AM 55.4 °F 51.8 °F 88% 30.12 in 6.2 mi Variable 2.3 mph - N/A   Mostly Cloudy
8:30 AM 55.4 °F 51.8 °F 88% 30.12 in - NW 3.5 mph - N/A   Clear
9:00 AM 57 °F 51 °F 75% 30.16 in 9 mi North 3.5 mph - -   Mostly Cloudy
9:00 AM 57.2 °F 51.8 °F 82% 30.15 in - North 3.5 mph - N/A   Clear
9:30 AM 57.2 °F 51.8 °F 82% 30.15 in - WNW 3.5 mph - N/A   Clear
10:00 AM 58 °F 52 °F 73% 30.17 in 6 mi West 2.3 mph - -   Mostly Cloudy
10:00 AM 57.2 °F 51.8 °F 82% 30.15 in - Variable 2.3 mph - N/A   Clear
10:30 AM 59.0 °F 53.6 °F 82% 30.15 in - West 3.5 mph - N/A   Clear
11:00 AM 59 °F 53 °F 73% 30.19 in 8 mi West 4.6 mph - -   Mostly Cloudy
11:00 AM 59.0 °F 51.8 °F 77% 30.18 in - West 4.6 mph - N/A   Clear
12:00 PM 59 °F 55 °F 84% 30.21 in 9 mi NNW 3.5 mph - - Rain Light Rain
12:00 PM 59.0 °F 55.4 °F 88% 30.18 in 6.2 mi NNW 3.5 mph - N/A   Mostly Cloudy
12:30 PM 59.0 °F 55.4 °F 88% 30.18 in 6.2 mi NNW 3.5 mph - N/A Rain Light Rain
1:00 PM 60 °F 56 °F 84% 30.21 in 6 mi West 8.1 mph - - Rain Light Rain
1:00 PM 60.8 °F 57.2 °F 88% 30.18 in 6.2 mi West 8.1 mph - N/A   Mostly Cloudy
1:30 PM 60.8 °F 55.4 °F 82% 30.18 in 6.2 mi West 6.9 mph - N/A   Mostly Cloudy
2:00 PM 66 °F 56 °F 61% 30.19 in 19 mi SW 3.5 mph - -   Partly Cloudy
2:00 PM 66.2 °F 55.4 °F 68% 30.18 in 6.2 mi Variable 3.5 mph - N/A   Mostly Cloudy
2:30 PM 68.0 °F 53.6 °F 60% 30.18 in 6.2 mi WSW 11.5 mph - N/A   Mostly Cloudy
3:00 PM 68 °F 54 °F 51% 30.17 in 31 mi West 10.4 mph - -   Scattered Clouds
3:00 PM 68.0 °F 53.6 °F 60% 30.15 in 6.2 mi West 10.4 mph - N/A   Mostly Cloudy
3:30 PM 71.6 °F 53.6 °F 53% 30.12 in - South 8.1 mph - N/A   Clear
4:00 PM 74 °F 47 °F 28% 30.13 in 31 mi WNW 12.7 mph - -   Scattered Clouds
4:00 PM 73.4 °F 48.2 °F 41% 30.12 in - West 11.5 mph - N/A   Clear
4:30 PM 73.4 °F 44.6 °F 36% 30.09 in - West 19.6 mph - N/A   Clear
5:00 PM 74 °F 41 °F 20% 30.12 in 31 mi WNW 21.9 mph - -   Scattered Clouds
5:00 PM 73.4 °F 41.0 °F 31% 30.09 in - West 23.0 mph - N/A   Clear
5:30 PM 73.4 °F 41.0 °F 31% 30.09 in - WNW 21.9 mph - N/A   Clear
6:00 PM 74 °F 40 °F 18% 30.12 in 31 mi West 20.7 mph - -   Scattered Clouds
6:00 PM 73.4 °F 39.2 °F 29% 30.09 in - West 21.9 mph - N/A   Clear
6:30 PM 73.4 °F 35.6 °F 25% 30.09 in - WNW 19.6 mph - N/A   Clear
7:00 PM 72 °F 34 °F 15% 30.13 in 25 mi WNW 21.9 mph - -   Scattered Clouds
7:00 PM 71.6 °F 35.6 °F 27% 30.12 in - WNW 21.9 mph - N/A   Clear
7:30 PM 71.6 °F 35.6 °F 27% 30.12 in - North 11.5 mph - N/A   Clear
8:00 PM 69 °F 43 °F 28% 30.16 in 25 mi WNW 6.9 mph - -   Scattered Clouds
8:00 PM 69.8 °F 42.8 °F 38% 30.15 in - Variable 5.8 mph - N/A   Clear
8:30 PM 68.0 °F 39.2 °F 35% 30.15 in - NNW 5.8 mph - N/A   Clear
9:00 PM 66 °F 37 °F 22% 30.19 in 25 mi North 9.2 mph - -   Partly Cloudy
9:00 PM 66.2 °F 37.4 °F 35% 30.18 in 6.2 mi NNW 9.2 mph - N/A   Scattered Clouds
9:30 PM 64.4 °F 46.4 °F 52% 30.18 in 6.2 mi NNE 4.6 mph - N/A   Scattered Clouds
10:00 PM 62 °F 47 °F 46% 30.22 in 25 mi Calm Calm - -  
10:00 PM 62.6 °F 46.4 °F 55% 30.21 in - Calm Calm - N/A   Clear
10:30 PM 60.8 °F 46.4 °F 59% 30.21 in - Variable 2.3 mph - N/A   Clear
11:00 PM 59 °F 45 °F 48% 30.23 in 25 mi North 3.5 mph - -  
11:00 PM 59.0 °F 44.6 °F 59% 30.21 in - North 3.5 mph - N/A   Clear
11:30 PM 57.2 °F 39.2 °F 51% 30.21 in - Variable 2.3 mph - N/A   Clear